Погода в Полянице-Здруй

Польша     50°24′18″N   16°30′53″E
темп.,
°C
ветер,
м/с
пор.,
м/с
влажн.,
%
обл.,
%
осадки,
мм/ч
давл.,
гПа
погр.,
м
28 февраля, вс
вс2801:00+1зсз238297 0.1 1038169
04:00−1з128982 0.0 103721
07:000зюз128591 0.0 103739
10:00+3зюз226647 0.0 1037388
13:00+7зсз244924 0.0 1035810
16:00+6з34580 0.0 1034633
19:00+2з12780 0.0 103522
22:00+1сз12920 0.0 103522
1 марта, пн
пн101:00+1сз12955 0.0 103622
04:000ссв11963 0.0 103522
07:000сз019620 0.0 103622
10:00+5в017736 0.0 1036323
13:00+8в116318 0.0 1036477
16:00+8всв12620 0.0 1034525
19:00+3ююв11830 0.0 103522
22:00+2юз11840 0.0 103522
2 марта, вт
вт201:00+2зюз11830 0.0 103522
04:00+2зюз12820 0.0 103522
07:00+1зюз12840 0.0 103522
10:00+7зюз22620 0.0 1034254
13:00+11з11500 0.0 1034534
16:00+11зюз11560 0.0 1032302
19:00+5з11760 0.0 103322
22:00+4зюз11820 0.0 103322
3 марта, ср
ср301:00+3зюз11830 0.0 103322
04:00+2зюз11840 0.0 103222
07:00+2зюз12850 0.0 103222
10:00+8зюз12650 0.0 1031263
13:00+11зюз22526 0.0 1029577
16:00+10з22595 0.0 1027432
19:00+5зюз22792 0.0 102722
22:00+3юз228033 0.0 102622
4 марта, чт
чт401:00+2зюз238351 0.0 102432
04:00+2зюз228858 0.0 102224
07:00+2юз239257 0.0 102046
10:00+7юз497390 0.0 1018449
13:00+7зюз497890 0.8 1016505
16:00+7зюз51080100 0.1 1014817
19:00+5з51286100 0.4 1013525
22:00+5зюз71386100 0.0 1014639